Voltar ao catálogo

STARLINK-4443

AtivoComunicaçõesSSO
NORAD 53508·PAYLOAD·🇺🇸 United States

Lançado Aug 12, 2022 de Vandenberg Space Force Base

Loading…

Próximas Passagens (próximas 24 horas)

TLE

AtualizadoSource: CelesTrak SupGP

Época: Sep 14, 2026, 20:45 UTC

1 53508C 22099AV  26257.86506944  .00061494  00000+0  19060-2 0  2575
2 53508  97.2865  15.6208 0001314 103.2063 152.2868 15.33456763    12

Acompanhe STARLINK-4443 em tempo real com AllMySat

Download on the App Store